Flag for Norway Weather past 2 weeks in Sarpsborg, Norway

Now
63 °F

Sunny.


Feels Like: 63 °F
Forecast: 46 / 64 °F
Wind: 6 mph from Southwest

Location: Rygge

Current Time: Sep 19, 2014 at 6:54:51 PM

Latest Report: Sep 19, 2014 at 6:20 PM


Visibility: 10 mi

Pressure: 30.04 "Hg

Humidity: 59%

Dew point: 48 °F

Location of SarpsborgLocation

Historic Weather in Sarpsborg — Graph

°F

Sarpsborg temperature yesterday

Maximum temperature yesterday: 66 °F (at 3:50 PM)
Minimum temperature yesterday: 45 °F (at 2:20 AM)
Average temperature yesterday: 51 °F

Past Weeks' High & Low Weather Summary

 TemperatureHumidityPressure
High70 °F (Sep 6, 3:50 PM)100% (Sep 5, 1:50 AM)30.48 "Hg (Sep 5, 1:50 AM)
Low45 °F (Sep 14, 3:20 AM)43% (Sep 13, 5:50 PM)29.77 "Hg (Sep 9, 2:20 AM)
Average57 °F81%30.17 "Hg
* Reported Sep 4 5:20 PM — Sep 19 5:50 PM, Sarpsborg, Weather by CustomWeather, © 2014

Note: Actual official high and low records may vary slightly from our data, if they occured in-between our weather recording intervals... More about our weather records

Advertising

Sarpsborg weather history for previous 24 hours

 ConditionsComfort  
Time TempWeatherWind HumidityBarometerVisibility
5:50 PM
Sep 19
64 °FPassing clouds.6 mph56%30.04 "HgN/A
5:20 PM64 °FPassing clouds.7 mph60%30.04 "HgN/A
4:50 PM66 °FPassing clouds.5 mph49%30.07 "HgN/A
4:20 PM66 °FPassing clouds.7 mph52%30.07 "HgN/A
3:50 PM68 °FPassing clouds.3 mph56%30.07 "HgN/A
3:20 PM66 °FPassing clouds.6 mph52%30.07 "HgN/A
2:50 PM66 °FPassing clouds.6 mph56%30.07 "HgN/A
2:20 PM66 °FSunny.2 mph60%30.07 "Hg10 mi
1:50 PM66 °FSunny.1 mph60%30.09 "Hg10 mi
1:20 PM64 °FSunny.3 mph64%30.09 "Hg10 mi
12:50 PM64 °FSunny.2 mph64%30.09 "Hg10 mi
12:20 PM63 °FSunny.2 mph68%30.09 "Hg10 mi
11:50 AM59 °FPassing clouds.3 mph77%30.09 "HgN/A
11:20 AM55 °FPassing clouds.3 mph88%30.12 "HgN/A
10:50 AM54 °FSunny.5 mph88%30.12 "Hg10 mi
10:20 AM50 °FSunny.5 mph94%30.12 "Hg10 mi
9:50 AM50 °FSunny.3 mph94%30.12 "Hg10 mi
9:20 AM48 °FSunny.5 mph94%30.12 "Hg10 mi
8:50 AM48 °FSunny.3 mph94%30.12 "Hg10 mi
8:20 AM46 °FSunny.5 mph93%30.12 "Hg10 mi
7:50 AM45 °FClear.2 mph100%30.12 "Hg10 mi
7:20 AM45 °FClear.3 mph100%30.09 "Hg3 mi
6:50 AM45 °FClear.3 mph100%30.09 "Hg10 mi
6:20 AM46 °FClear.2 mph93%30.09 "Hg10 mi
5:50 AM46 °FOvercast.3 mph93%30.09 "Hg6 mi
5:20 AM46 °FPassing clouds.3 mph93%30.12 "Hg5 mi
4:50 AM46 °FPassing clouds.3 mph93%30.12 "Hg3 mi
4:20 AM46 °FPassing clouds.2 mph93%30.12 "Hg4 mi
3:50 AM46 °FFog.3 mph93%30.12 "Hg3 mi
3:20 AM46 °FPassing clouds.2 mph100%30.12 "Hg6 mi
2:50 AM48 °FPassing clouds.3 mph94%30.12 "HgN/A
2:20 AM48 °FCool.3 mph94%30.12 "HgN/A
1:50 AM48 °FPassing clouds.3 mph94%30.12 "HgN/A
1:20 AM48 °FPassing clouds.3 mph94%30.12 "HgN/A
12:50 AM48 °FPassing clouds.3 mph94%30.15 "HgN/A
12:20 AM48 °FPassing clouds.3 mph94%30.15 "HgN/A
11:50 PM
Sep 18
48 °FPassing clouds.3 mph94%30.15 "HgN/A
11:20 PM48 °FClear.3 mph94%30.15 "Hg10 mi
10:50 PM50 °FClear.5 mph94%30.15 "Hg10 mi
10:20 PM50 °FClear.3 mph94%30.15 "Hg10 mi
9:50 PM52 °FClear.3 mph88%30.15 "Hg10 mi
9:20 PM52 °FClear.3 mph94%30.15 "Hg10 mi
8:50 PM54 °FClear.2 mph88%30.15 "Hg10 mi
Weather by CustomWeather, © 2014

See weather overviewHow to use our weather pages